Regional Weather Roundup
Issued by NWS Nashville, TN

Current Version | Previous Version | Text Only | Print | Product List | Glossary On
Versions: 1 2 3 4 5 6 7 8 9 10 11 12 13 14 15 16 17 18 19 20 21 22 23 24 25 26 27 28
000
ASUS44 KOHX 232210
RWROHX
MIDDLE TENNESSEE HOURLY WEATHER ROUNDUP
NATIONAL WEATHER SERVICE NASHVILLE TN
500 PM CDT MON APR 23 2018

NOTE: "FAIR" INDICATES FEW OR NO CLOUDS BELOW 12,000 FEET WITH
NO SIGNIFICANT WEATHER AND/OR OBSTRUCTIONS TO VISIBILITY.

* THESE REPORTS ARE NOT UNDER NWS QUALITY CONTROL AND MAY NOT
  REPORT WEATHER SUCH AS PRECIPITATION AND FOG.


TNZ005>011-023>034-057-059-062>066-078-080-232300
...NORTHERN MIDDLE TENNESSEE...

CITY           SKY/WX    TMP DP  RH WIND       PRES   REMARKS
CLARKSVILLE      N/A     67  52  58 E8        29.88R
CROSSVILLE     CLOUDY    54  51  90 E8        29.95F
GALLATIN       PTSUNNY   59  57  94 VRB6      29.94S FOG
LEBANON        CLOUDY    59  57  94 VRB7      29.89F FOG
LIVINGSTON     PTSUNNY   55  54  94 CALM      29.94S FOG
NASHVILLE      CLOUDY    61  58  90 E9        29.89S
PORTLAND       CLOUDY    57  55  94 N3        29.92S
ROCKWOOD       CLOUDY    54  52  94 E7G15     29.95F
SMYRNA         LGT RAIN  60  58  92 E7        29.91R
SPARTA         MOSUNNY   59  55  88 E7        29.92S
WEST NASHVILLE CLOUDY    61  57  88 E7G17     29.89R
$$
TNZ056-058-060-061-075>077-079-093>097-232300
...SOUTHERN MIDDLE TENNESSEE...

CITY           SKY/WX    TMP DP  RH WIND       PRES   REMARKS
COLUMBIA       PTSUNNY   64  55  72 SW9       29.87R
FAYETTEVILLE   CLOUDY    63  57  82 E8        29.87S
LEWISBURG      CLOUDY    66  50  55 S5        29.86F
MCMINNVILLE    FOG       59  57  94 CALM      29.92R VSB 1
MURFREESBORO   CLOUDY    59  57  94 E5        29.89S
PULASKI        MOSUNNY   63  59  88 CALM      29.87R
SHELBYVILLE    CLOUDY    59  57  94 E6        29.89R
TULLAHOMA      PTSUNNY   61  55  82 NE6       29.89S
WINCHESTER     CLOUDY    59  57  94 CALM      29.89S
$$


...KEY TO REMARKS...
VSB - VISIBILITY IN MILES
WCI - WIND CHILL INDEX
HX  - HEAT INDEX





USA.gov is the U.S. government's official web portal to all federal, state and local government web resources and services.